| time (UTC) | temp F | wind direction | speed knots | gust knots | rain 1hr in | rain 24hr in | rain mn in | humidity % | barometer mb |
| 20260505192009 | 37 | 45 | 0.9 | 3.5 | 0.03 | 0.62 | 0.40 | 92 | 1013.9 |
| 20260505191532 | 37 | 33 | 1.7 | 2.6 | 0.03 | 0.62 | 0.40 | 92 | 1013.8 |
| 20260505191014 | 37 | 349 | 0.9 | 2.6 | 0.04 | 0.62 | 0.40 | 92 | 1013.6 |
| 20260505190511 | 37 | 302 | 0.0 | 1.7 | 0.04 | 0.62 | 0.40 | 93 | 1013.7 |
| 20260505190029 | 37 | 352 | 0.0 | 2.6 | 0.04 | 0.61 | 0.39 | 93 | 1013.7 |
| 20260505185504 | 36 | 350 | 0.9 | 2.6 | 0.05 | 0.61 | 0.39 | 92 | 1013.8 |
| 20260505185004 | 36 | 340 | 0.9 | 1.7 | 0.06 | 0.61 | 0.39 | 92 | 1013.8 |
| 20260505184514 | 36 | 19 | 0.9 | 1.7 | 0.06 | 0.61 | 0.39 | 92 | 1013.9 |
| 20260505184011 | 36 | 32 | 0.0 | 1.7 | 0.05 | 0.60 | 0.38 | 92 | 1014.0 |
| 20260505183511 | 36 | 40 | 0.9 | 1.7 | 0.05 | 0.60 | 0.38 | 93 | 1013.8 |
| 20260505183029 | 36 | 32 | 0.0 | 1.7 | 0.06 | 0.60 | 0.38 | 92 | 1013.9 |
| 20260505182510 | 36 | 344 | 0.0 | 2.6 | 0.05 | 0.58 | 0.37 | 92 | 1014.2 |
| 20260505182013 | 35 | 344 | 0.0 | 2.6 | 0.05 | 0.58 | 0.37 | 92 | 1014.4 |
| 20260505181508 | 36 | 28 | 0.9 | 2.6 | 0.05 | 0.58 | 0.37 | 92 | 1014.5 |
| 20260505181006 | 36 | 324 | 0.9 | 2.6 | 0.04 | 0.58 | 0.36 | 91 | 1014.5 |
| 20260505180510 | 36 | 351 | 0.0 | 1.7 | 0.04 | 0.58 | 0.36 | 91 | 1014.5 |
| 20260505180029 | 36 | 330 | 0.0 | 1.7 | 0.03 | 0.57 | 0.35 | 92 | 1014.5 |
| 20260505175510 | 36 | 331 | 0.9 | 2.6 | 0.02 | 0.56 | 0.34 | 93 | 1014.4 |
| 20260505175011 | 36 | 24 | 0.9 | 2.6 | 0.01 | 0.55 | 0.33 | 93 | 1014.5 |
| 20260505174537 | 36 | 37 | 0.0 | 1.7 | 0.01 | 0.55 | 0.33 | 93 | 1014.5 |
| 20260505174011 | 36 | 327 | 0.0 | 2.6 | 0.02 | 0.55 | 0.33 | 93 | 1014.5 |
| 20260505173504 | 36 | 352 | 0.9 | 3.5 | 0.02 | 0.55 | 0.33 | 92 | 1014.5 |
| 20260505173016 | 36 | 17 | 0.9 | 3.5 | 0.01 | 0.54 | 0.32 | 92 | 1014.7 |
| 20260505172509 | 36 | 333 | 0.0 | 2.6 | 0.01 | 0.54 | 0.32 | 93 | 1014.8 |
| 20260505172012 | 36 | 348 | 0.9 | 2.6 | 0.01 | 0.54 | 0.32 | 93 | 1014.8 |
| 20260505171529 | 36 | 325 | 0.9 | 4.3 | 0.01 | 0.54 | 0.32 | 93 | 1014.9 |
| 20260505171007 | 36 | 349 | 2.6 | 4.3 | 0.02 | 0.54 | 0.32 | 92 | 1015.1 |
| 20260505170510 | 36 | 348 | 0.0 | 2.6 | 0.02 | 0.54 | 0.32 | 93 | 1015.2 |
| 20260505170032 | 36 | 352 | 0.9 | 2.6 | 0.02 | 0.54 | 0.32 | 93 | 1015.1 |
| 20260505165503 | 36 | 9 | 0.0 | 1.7 | 0.02 | 0.54 | 0.32 | 93 | 1015.0 |
| 20260505165007 | 36 | 342 | 0.0 | 1.7 | 0.02 | 0.54 | 0.32 | 94 | 1014.9 |
| 20260505164520 | 36 | 30 | 0.0 | 1.7 | 0.03 | 0.54 | 0.32 | 93 | 1015.0 |
| 20260505164010 | 36 | 15 | 0.9 | 1.7 | 0.02 | 0.52 | 0.31 | 94 | 1015.0 |
| 20260505163510 | 36 | 17 | 0.0 | 2.6 | 0.02 | 0.52 | 0.31 | 93 | 1015.0 |
| 20260505163026 | 36 | 22 | 0.0 | 2.6 | 0.03 | 0.52 | 0.31 | 93 | 1015.0 |
| 20260505162510 | 36 | 347 | 0.0 | 2.6 | 0.03 | 0.52 | 0.31 | 94 | 1015.0 |
| 20260505162014 | 35 | 338 | 1.7 | 2.6 | 0.03 | 0.52 | 0.31 | 93 | 1015.0 |
| 20260505161529 | 35 | 324 | 0.9 | 2.6 | 0.04 | 0.52 | 0.31 | 94 | 1015.1 |
| 20260505161007 | 35 | 349 | 0.9 | 3.5 | 0.03 | 0.52 | 0.30 | 94 | 1015.2 |
| 20260505160508 | 35 | 56 | 0.9 | 3.5 | 0.03 | 0.52 | 0.30 | 94 | 1015.3 |
| 20260505153004 | 35 | 5 | 0.0 | 1.7 | 0.04 | 0.50 | 0.28 | 94 | 1015.4 |
| 20260505152504 | 35 | 22 | 0.9 | 1.7 | 0.05 | 0.50 | 0.28 | 94 | 1015.4 |
| 20260505152006 | 35 | 13 | 0.0 | 1.7 | 0.05 | 0.50 | 0.28 | 94 | 1015.5 |
| 20260505151503 | 35 | 39 | 0.9 | 1.7 | 0.05 | 0.49 | 0.27 | 94 | 1015.6 |
| 20260505151003 | 35 | 18 | 0.9 | 1.7 | 0.05 | 0.49 | 0.27 | 94 | 1015.6 |
| 20260505150503 | 35 | 59 | 0.0 | 1.7 | 0.06 | 0.49 | 0.27 | 94 | 1015.5 |
| 20260505140505 | 34 | 337 | 0.0 | 1.7 | 0.03 | 0.43 | 0.21 | 94 | 1015.6 |
| 20260505125003 | 33 | 269 | 0.0 | 1.7 | 0.02 | 0.40 | 0.18 | 93 | 1014.7 |
| 20260505124507 | 33 | 275 | 0.0 | 1.7 | 0.02 | 0.40 | 0.18 | 93 | 1014.7 |
| 20260505124003 | 33 | 261 | 0.0 | 1.7 | 0.02 | 0.40 | 0.18 | 93 | 1014.7 |
| 20260505123502 | 33 | 324 | 0.0 | 1.7 | 0.03 | 0.40 | 0.18 | 93 | 1014.7 |
| 20260505123004 | 33 | 316 | 0.0 | 1.7 | 0.02 | 0.39 | 0.17 | 93 | 1014.7 |
| 20260505122502 | 33 | 319 | 0.0 | 1.7 | 0.02 | 0.39 | 0.17 | 92 | 1014.7 |
| 20260505122002 | 34 | 338 | 0.0 | 1.7 | 0.03 | 0.39 | 0.17 | 92 | 1014.7 |
| 20260505121504 | 34 | 338 | 0.0 | 1.7 | 0.03 | 0.39 | 0.17 | 92 | 1014.7 |
| 20260505121003 | 34 | 327 | 0.0 | 3.5 | 0.03 | 0.39 | 0.17 | 92 | 1014.6 |
| 20260505120504 | 34 | 338 | 0.9 | 4.3 | 0.03 | 0.39 | 0.17 | 92 | 1014.5 |
| 20260505120006 | 34 | 352 | 0.9 | 4.3 | 0.03 | 0.39 | 0.17 | 92 | 1014.5 |
| 20260505115507 | 35 | 303 | 0.9 | 3.5 | 0.03 | 0.39 | 0.17 | 92 | 1014.4 |
| 20260505115003 | 35 | 32 | 1.7 | 5.2 | 0.03 | 0.38 | 0.16 | 92 | 1014.3 |
| 20260505114505 | 35 | 351 | 0.9 | 5.2 | 0.03 | 0.38 | 0.16 | 91 | 1014.3 |
| 20260505114003 | 35 | 325 | 0.0 | 4.3 | 0.03 | 0.38 | 0.16 | 92 | 1014.3 |
| 20260505113502 | 35 | 337 | 0.9 | 4.3 | 0.03 | 0.37 | 0.15 | 92 | 1014.2 |
| 20260505113005 | 36 | 26 | 1.7 | 4.3 | 0.03 | 0.37 | 0.15 | 92 | 1014.2 |
| 20260505112504 | 36 | 5 | 0.0 | 7.0 | 0.04 | 0.37 | 0.15 | 91 | 1014.1 |
| 20260505112001 | 36 | 16 | 3.5 | 6.1 | 0.03 | 0.36 | 0.14 | 91 | 1014.0 |
| 20260505111507 | 36 | 25 | 0.9 | 7.8 | 0.03 | 0.36 | 0.14 | 92 | 1014.0 |
| 20260505111002 | 36 | 330 | 1.7 | 7.8 | 0.03 | 0.36 | 0.14 | 91 | 1014.0 |
| 20260505110503 | 36 | 15 | 2.6 | 7.0 | 0.03 | 0.36 | 0.14 | 91 | 1014.0 |
| 20260505102003 | 40 | 360 | 2.6 | 11.3 | 0.09 | 0.33 | 0.11 | 90 | 1013.5 |
| 20260505101508 | 40 | 287 | 2.6 | 7.8 | 0.10 | 0.33 | 0.11 | 89 | 1013.5 |
| 20260505101004 | 40 | 360 | 3.5 | 7.8 | 0.10 | 0.33 | 0.11 | 89 | 1013.4 |
| 20260505100505 | 41 | 20 | 2.6 | 5.2 | 0.10 | 0.33 | 0.11 | 90 | 1013.3 |
| 20260505100008 | 41 | 343 | 2.6 | 7.0 | 0.10 | 0.33 | 0.11 | 90 | 1013.2 |
| 20260505095502 | 41 | 351 | 1.7 | 7.0 | 0.09 | 0.32 | 0.10 | 90 | 1013.1 |
| 20260505095002 | 41 | 360 | 0.9 | 7.8 | 0.09 | 0.32 | 0.10 | 90 | 1013.1 |
| 20260505094508 | 41 | 341 | 3.5 | 7.8 | 0.08 | 0.31 | 0.09 | 89 | 1013.1 |
| 20260505094003 | 41 | 63 | 1.7 | 5.2 | 0.07 | 0.30 | 0.08 | 89 | 1013.1 |
| 20260505093503 | 41 | 78 | 1.7 | 7.8 | 0.06 | 0.29 | 0.07 | 89 | 1012.9 |
| 20260505093010 | 41 | 288 | 2.6 | 7.0 | 0.05 | 0.28 | 0.06 | 89 | 1012.9 |
| 20260505092503 | 42 | 33 | 2.6 | 9.6 | 0.03 | 0.26 | 0.04 | 89 | 1012.9 |
| 20260505090006 | 42 | 325 | 1.7 | 7.0 | 0.00 | 0.23 | 0.01 | 89 | 1012.7 |
| 20260505085504 | 42 | 252 | 1.7 | 7.0 | 0.00 | 0.23 | 0.01 | 88 | 1012.6 |
| 20260505085005 | 42 | 24 | 1.7 | 6.1 | 0.00 | 0.23 | 0.01 | 88 | 1012.5 |
| 20260505084516 | 42 | 352 | 2.6 | 6.1 | 0.00 | 0.23 | 0.01 | 88 | 1012.7 |
| 20260505084004 | 42 | 261 | 0.9 | 2.6 | 0.00 | 0.23 | 0.01 | 89 | 1012.7 |
| 20260505083503 | 42 | 342 | 0.9 | 7.0 | 0.01 | 0.23 | 0.01 | 88 | 1012.6 |
| 20260505083014 | 42 | 310 | 0.9 | 7.0 | 0.01 | 0.23 | 0.01 | 88 | 1012.6 |
| 20260505082503 | 43 | 338 | 2.6 | 8.7 | 0.01 | 0.23 | 0.01 | 88 | 1012.4 |
| 20260505082004 | 43 | 350 | 4.3 | 8.7 | 0.01 | 0.23 | 0.01 | 88 | 1012.4 |
| 20260505081508 | 43 | 289 | 0.0 | 7.0 | 0.01 | 0.23 | 0.01 | 88 | 1012.6 |
| 20260505081009 | 43 | 9 | 1.7 | 7.0 | 0.01 | 0.23 | 0.01 | 87 | 1012.6 |
| 20260505080506 | 43 | 360 | 2.6 | 7.0 | 0.01 | 0.23 | 0.01 | 87 | 1012.7 |
| 20260505080023 | 43 | 32 | 2.6 | 8.7 | 0.01 | 0.23 | 0.01 | 87 | 1012.5 |
| 20260505075503 | 43 | 311 | 2.6 | 9.6 | 0.01 | 0.23 | 0.01 | 87 | 1012.4 |
| 20260505075007 | 43 | 360 | 4.3 | 9.6 | 0.01 | 0.23 | 0.01 | 87 | 1012.4 |
| 20260505074510 | 44 | 352 | 3.5 | 8.7 | 0.01 | 0.23 | 0.01 | 86 | 1012.3 |
| 20260505074004 | 44 | 19 | 2.6 | 8.7 | 0.01 | 0.23 | 0.01 | 86 | 1012.3 |
| 20260505073504 | 45 | 348 | 2.6 | 13.0 | 0.00 | 0.22 | 0.00 | 85 | 1012.3 |
| 20260505073014 | 45 | 84 | 5.2 | 13.0 | 0.00 | 0.22 | 0.00 | 85 | 1012.2 |
| 20260505072507 | 46 | 5 | 3.5 | 11.3 | 0.00 | 0.22 | 0.00 | 89 | 1012.1 |
| 20260505072007 | 46 | 338 | 4.3 | 8.7 | 0.00 | 0.22 | 0.00 | 92 | 1012.0 |
| 20260505071511 | 45 | 19 | 1.7 | 2.6 | 0.00 | 0.22 | 0.00 | 92 | 1012.0 |
| 20260505071008 | 45 | 340 | 0.0 | 1.7 | 0.00 | 0.22 | 0.00 | 92 | 1012.0 |
| 20260505070510 | 45 | 277 | 0.0 | 1.7 | 0.00 | 0.22 | 0.00 | 92 | 1011.8 |
| 20260505070014 | 45 | 277 | 0.0 | 1.7 | 0.00 | 0.22 | 0.00 | 92 | 1011.6 |
| 20260505065503 | 45 | 263 | 0.0 | 1.7 | 0.00 | 0.22 | 0.00 | 91 | 1011.6 |
| 20260505065004 | 45 | 263 | 0.0 | 1.7 | 0.00 | 0.22 | 0.00 | 92 | 1011.5 |
| 20260505064513 | 45 | 304 | 0.0 | 1.7 | 0.00 | 0.22 | 0.00 | 92 | 1011.5 |
| 20260505064004 | 45 | 319 | 0.0 | 1.7 | 0.00 | 0.22 | 0.00 | 92 | 1011.6 |
| 20260505063504 | 45 | 360 | 0.0 | 1.7 | 0.00 | 0.22 | 0.00 | 92 | 1011.5 |
| 20260505063012 | 45 | 360 | 0.0 | 1.7 | 0.00 | 0.22 | 0.00 | 92 | 1011.5 |
| 20260505062505 | 45 | 360 | 0.0 | 1.7 | 0.00 | 0.22 | 0.00 | 92 | 1011.5 |
| 20260505062004 | 45 | 360 | 0.0 | 1.7 | 0.00 | 0.22 | 0.00 | 92 | 1011.5 |
| 20260505061518 | 45 | 360 | 0.0 | 1.7 | 0.00 | 0.22 | 0.00 | 93 | 1011.6 |
| 20260505061009 | 45 | 12 | 0.0 | 0.9 | 0.00 | 0.22 | 0.00 | 93 | 1011.6 |
| 20260505060507 | 45 | 38 | 0.9 | 1.7 | 0.00 | 0.22 | 0.00 | 93 | 1011.6 |
| 20260505060014 | 45 | 238 | 0.0 | 1.7 | 0.00 | 0.22 | 0.00 | 92 | 1011.4 |
| 20260505055507 | 45 | 238 | 0.0 | 1.7 | 0.00 | 0.22 | 0.22 | 92 | 1011.5 |
| 20260505055007 | 45 | 238 | 0.0 | 1.7 | 0.00 | 0.22 | 0.22 | 92 | 1011.5 |
| 20260505054514 | 45 | 238 | 0.0 | 1.7 | 0.00 | 0.22 | 0.22 | 92 | 1011.5 |
| 20260505054012 | 45 | 238 | 0.0 | 1.7 | 0.00 | 0.22 | 0.22 | 92 | 1011.5 |
| 20260505053506 | 46 | 238 | 0.0 | 1.7 | 0.00 | 0.22 | 0.22 | 92 | 1011.3 |
| 20260505053015 | 46 | 238 | 0.0 | 1.7 | 0.00 | 0.22 | 0.22 | 92 | 1011.4 |
| 20260505052504 | 46 | 235 | 0.0 | 0.0 | 0.00 | 0.22 | 0.22 | 92 | 1011.2 |
| 20260505052008 | 46 | 235 | 0.0 | 1.7 | 0.00 | 0.22 | 0.22 | 92 | 1011.2 |
| 20260505051524 | 46 | 235 | 0.0 | 1.7 | 0.00 | 0.22 | 0.22 | 91 | 1011.3 |
| 20260505051004 | 46 | 235 | 0.0 | 1.7 | 0.00 | 0.22 | 0.22 | 91 | 1011.4 |
| 20260505050508 | 46 | 235 | 0.0 | 1.7 | 0.00 | 0.22 | 0.22 | 91 | 1011.4 |
| 20260505041526 | 47 | 200 | 0.0 | 1.7 | 0.01 | 0.22 | 0.22 | 90 | 1011.8 |
| 20260505041007 | 47 | 194 | 0.0 | 1.7 | 0.02 | 0.22 | 0.22 | 91 | 1011.9 |
| 20260505040507 | 47 | 209 | 0.0 | 1.7 | 0.03 | 0.22 | 0.22 | 91 | 1011.9 |
| 20260505040016 | 47 | 225 | 0.0 | 1.7 | 0.04 | 0.22 | 0.22 | 91 | 1011.9 |
| 20260505035507 | 47 | 225 | 0.0 | 1.7 | 0.06 | 0.22 | 0.22 | 90 | 1011.8 |
| 20260505035007 | 47 | 240 | 0.9 | 1.7 | 0.09 | 0.22 | 0.22 | 90 | 1011.7 |
| 20260505034513 | 47 | 215 | 0.0 | 1.7 | 0.11 | 0.22 | 0.22 | 90 | 1011.8 |
| 20260505034012 | 47 | 226 | 0.0 | 1.7 | 0.14 | 0.22 | 0.22 | 90 | 1011.8 |
| 20260505033513 | 47 | 231 | 0.0 | 1.7 | 0.15 | 0.21 | 0.21 | 89 | 1011.9 |
| 20260505033017 | 47 | 224 | 0.0 | 1.7 | 0.17 | 0.21 | 0.21 | 89 | 1011.9 |
| 20260505032505 | 48 | 229 | 0.0 | 1.7 | 0.19 | 0.21 | 0.21 | 89 | 1012.0 |
| 20260505032012 | 48 | 234 | 0.0 | 1.7 | 0.20 | 0.21 | 0.21 | 88 | 1012.0 |
| 20260505031512 | 48 | 229 | 0.0 | 1.7 | 0.20 | 0.21 | 0.21 | 87 | 1011.9 |
| 20260505031008 | 48 | 252 | 0.9 | 2.6 | 0.19 | 0.20 | 0.20 | 87 | 1011.8 |
| 20260505030506 | 48 | 261 | 0.9 | 7.0 | 0.18 | 0.19 | 0.19 | 86 | 1011.9 |
| 20260505030018 | 49 | 288 | 1.7 | 7.0 | 0.17 | 0.18 | 0.18 | 85 | 1011.9 |
| 20260505025503 | 49 | 259 | 0.9 | 4.3 | 0.16 | 0.16 | 0.16 | 86 | 1011.8 |
| 20260505025004 | 49 | 221 | 0.9 | 7.0 | 0.13 | 0.13 | 0.13 | 86 | 1011.7 |
| 20260505024515 | 50 | 270 | 1.7 | 7.0 | 0.11 | 0.11 | 0.11 | 86 | 1011.6 |
| 20260505024005 | 50 | 237 | 0.9 | 4.3 | 0.08 | 0.08 | 0.08 | 85 | 1011.5 |
| 20260505023505 | 50 | 276 | 1.7 | 4.3 | 0.06 | 0.06 | 0.06 | 84 | 1011.4 |
| 20260505023011 | 50 | 153 | 0.0 | 1.7 | 0.04 | 0.04 | 0.04 | 83 | 1011.4 |
| 20260505022510 | 50 | 124 | 0.0 | 1.7 | 0.02 | 0.02 | 0.02 | 81 | 1011.2 |
| 20260505022006 | 51 | 123 | 0.0 | 0.0 | 0.01 | 0.01 | 0.01 | 79 | 1011.0 |
| 20260505021503 | 51 | 123 | 0.0 | 0.0 | 0.01 | 0.01 | 0.01 | 78 | 1011.0 |
| 20260505021004 | 51 | 123 | 0.0 | 0.9 | 0.01 | 0.01 | 0.01 | 77 | 1010.9 |
| 20260505020503 | 51 | 123 | 0.0 | 1.7 | 0.01 | 0.01 | 0.01 | 76 | 1010.8 |
| 20260505020006 | 51 | 123 | 0.0 | 1.7 | 0.01 | 0.01 | 0.01 | 75 | 1010.9 |
| 20260505015506 | 51 | 116 | 0.0 | 1.7 | 0.00 | 0.00 | 0.00 | 76 | 1011.0 |
| 20260505015010 | 51 | 115 | 0.0 | 1.7 | 0.00 | 0.00 | 0.00 | 75 | 1010.9 |
| 20260505014519 | 51 | 128 | 0.0 | 1.7 | 0.00 | 0.00 | 0.00 | 75 | 1010.8 |
| 20260505014008 | 51 | 121 | 0.0 | 7.0 | 0.00 | 0.00 | 0.00 | 72 | 1010.7 |
| 20260505013512 | 52 | 87 | 0.9 | 8.7 | 0.00 | 0.00 | 0.00 | 70 | 1010.6 |
| 20260505013016 | 52 | 349 | 1.7 | 8.7 | 0.00 | 0.00 | 0.00 | 70 | 1010.5 |
| 20260505012502 | 53 | 344 | 3.5 | 10.4 | 0.00 | 0.00 | 0.00 | 67 | 1010.5 |
| 20260505012005 | 54 | 24 | 4.3 | 10.4 | 0.00 | 0.00 | 0.00 | 61 | 1010.6 |
| 20260505011514 | 56 | 343 | 3.5 | 12.2 | 0.00 | 0.00 | 0.00 | 57 | 1010.5 |
| 20260505011006 | 57 | 315 | 2.6 | 12.2 | 0.00 | 0.00 | 0.00 | 53 | 1010.5 |
| 20260505010509 | 58 | 55 | 4.3 | 12.2 | 0.00 | 0.00 | 0.00 | 50 | 1010.5 |
| 20260505010020 | 58 | 60 | 1.7 | 7.0 | 0.00 | 0.00 | 0.00 | 49 | 1010.1 |
| 20260505005507 | 58 | 5 | 0.9 | 3.5 | 0.00 | 0.00 | 0.00 | 48 | 1010.1 |
| 20260505005004 | 58 | 341 | 1.7 | 4.3 | 0.00 | 0.00 | 0.00 | 48 | 1010.0 |
| 20260505004505 | 58 | 350 | 0.9 | 4.3 | 0.00 | 0.00 | 0.00 | 48 | 1009.9 |
| 20260505004004 | 58 | 339 | 2.6 | 5.2 | 0.00 | 0.00 | 0.00 | 48 | 1009.9 |
| 20260505003511 | 59 | 333 | 1.7 | 5.2 | 0.00 | 0.00 | 0.00 | 48 | 1009.9 |
| 20260505003017 | 59 | 339 | 2.6 | 5.2 | 0.00 | 0.00 | 0.00 | 48 | 1009.9 |
| 20260505002508 | 59 | 352 | 1.7 | 5.2 | 0.00 | 0.00 | 0.00 | 48 | 1009.8 |
| 20260505002010 | 59 | 318 | 0.9 | 5.2 | 0.00 | 0.00 | 0.00 | 49 | 1009.9 |
| 20260505001522 | 60 | 344 | 1.7 | 4.3 | 0.00 | 0.00 | 0.00 | 49 | 1009.7 |
| 20260505001005 | 60 | 34 | 0.9 | 4.3 | 0.00 | 0.00 | 0.00 | 50 | 1009.8 |
| 20260505000503 | 60 | 360 | 0.9 | 2.6 | 0.00 | 0.00 | 0.00 | 49 | 1009.6 |
| 20260505000025 | 59 | 18 | 0.9 | 3.5 | 0.00 | 0.00 | 0.00 | 48 | 1009.5 |
| 20260504235509 | 59 | 333 | 0.0 | 4.3 | 0.00 | 0.00 | 0.00 | 49 | 1009.5 |
| 20260504235007 | 59 | 38 | 2.6 | 4.3 | 0.00 | 0.00 | 0.00 | 49 | 1009.6 |
| 20260504234522 | 59 | 316 | 1.7 | 4.3 | 0.00 | 0.00 | 0.00 | 47 | 1009.7 |
| 20260504234006 | 59 | 328 | 0.0 | 2.6 | 0.00 | 0.00 | 0.00 | 49 | 1009.5 |
| 20260504233509 | 59 | 309 | 0.0 | 2.6 | 0.00 | 0.00 | 0.00 | 49 | 1009.5 |
| 20260504233006 | 59 | 313 | 0.0 | 2.6 | 0.00 | 0.00 | 0.00 | 49 | 1009.6 |
| 20260504232504 | 59 | 347 | 0.9 | 2.6 | 0.00 | 0.00 | 0.00 | 48 | 1009.4 |
| 20260504232006 | 59 | 333 | 0.9 | 1.7 | 0.00 | 0.00 | 0.00 | 51 | 1009.4 |
| 20260504231525 | 59 | 168 | 0.0 | 1.7 | 0.00 | 0.00 | 0.00 | 50 | 1009.1 |
| 20260504231012 | 59 | 120 | 0.0 | 1.7 | 0.00 | 0.00 | 0.00 | 48 | 1009.3 |
| 20260504230507 | 59 | 59 | 0.0 | 1.7 | 0.00 | 0.00 | 0.00 | 52 | 1009.4 |
| 20260504230022 | 59 | 198 | 0.0 | 3.5 | 0.00 | 0.00 | 0.00 | 53 | 1009.3 |
| 20260504225507 | 60 | 292 | 0.9 | 7.0 | 0.00 | 0.00 | 0.00 | 49 | 1009.4 |
| 20260504225005 | 60 | 235 | 1.7 | 7.0 | 0.00 | 0.00 | 0.00 | 44 | 1009.6 |
| 20260504224509 | 61 | 202 | 1.7 | 6.1 | 0.00 | 0.00 | 0.00 | 43 | 1009.6 |
| 20260504224009 | 61 | 274 | 0.0 | 5.2 | 0.00 | 0.00 | 0.00 | 41 | 1009.7 |
| 20260504223506 | 61 | 316 | 0.0 | 5.2 | 0.00 | 0.00 | 0.00 | 43 | 1009.7 |
| 20260504223018 | 61 | 212 | 0.9 | 6.1 | 0.00 | 0.00 | 0.00 | 41 | 1009.7 |
| 20260504222506 | 61 | 271 | 0.9 | 6.1 | 0.00 | 0.00 | 0.00 | 42 | 1009.8 |
| 20260504222014 | 61 | 280 | 0.9 | 4.3 | 0.00 | 0.00 | 0.00 | 40 | 1009.7 |
| 20260504221524 | 61 | 271 | 0.9 | 3.5 | 0.00 | 0.00 | 0.00 | 40 | 1009.5 |
| 20260504221005 | 62 | 283 | 0.9 | 2.6 | 0.00 | 0.00 | 0.00 | 40 | 1009.2 |
| 20260504220504 | 62 | 265 | 0.9 | 2.6 | 0.00 | 0.00 | 0.00 | 40 | 1008.9 |
| 20260504220019 | 62 | 336 | 0.0 | 7.0 | 0.00 | 0.00 | 0.00 | 40 | 1008.6 |
| 20260504215507 | 62 | 324 | 0.9 | 10.4 | 0.00 | 0.00 | 0.00 | 39 | 1008.3 |
| 20260504215009 | 62 | 9 | 5.2 | 10.4 | 0.00 | 0.00 | 0.00 | 40 | 1008.4 |
| 20260504214524 | 62 | 52 | 1.7 | 11.3 | 0.00 | 0.00 | 0.00 | 39 | 1008.3 |
| 20260504214010 | 62 | 30 | 4.3 | 14.8 | 0.00 | 0.00 | 0.00 | 40 | 1008.3 |
| 20260504213511 | 62 | 11 | 5.2 | 14.8 | 0.00 | 0.00 | 0.00 | 39 | 1008.3 |
| 20260504213010 | 63 | 22 | 5.2 | 13.9 | 0.00 | 0.00 | 0.00 | 38 | 1008.3 |
| 20260504212509 | 63 | 352 | 3.5 | 15.6 | 0.00 | 0.00 | 0.00 | 36 | 1008.5 |
| 20260504212006 | 63 | 34 | 7.0 | 15.6 | 0.00 | 0.00 | 0.00 | 35 | 1008.6 |
| 20260504211516 | 64 | 339 | 3.5 | 13.0 | 0.00 | 0.00 | 0.00 | 35 | 1008.4 |
| 20260504211007 | 64 | 15 | 4.3 | 14.8 | 0.00 | 0.00 | 0.00 | 34 | 1008.5 |
| 20260504210511 | 65 | 34 | 7.8 | 14.8 | 0.00 | 0.00 | 0.00 | 34 | 1008.4 |
| 20260504210027 | 65 | 50 | 6.1 | 17.4 | 0.00 | 0.00 | 0.00 | 33 | 1008.2 |
| 20260504205511 | 65 | 76 | 5.2 | 17.4 | 0.00 | 0.00 | 0.00 | 31 | 1008.5 |
| 20260504205007 | 68 | 5 | 6.1 | 15.6 | 0.00 | 0.00 | 0.00 | 27 | 1008.5 |
| 20260504204511 | 72 | 322 | 2.6 | 7.0 | 0.00 | 0.00 | 0.00 | 24 | 1008.5 |
| 20260504204007 | 71 | 180 | 1.7 | 9.6 | 0.00 | 0.00 | 0.00 | 26 | 1007.7 |
| 20260504203507 | 69 | 139 | 3.5 | 9.6 | 0.00 | 0.00 | 0.00 | 27 | 1007.6 |
| 20260504203031 | 68 | 142 | 3.5 | 7.8 | 0.00 | 0.00 | 0.00 | 29 | 1007.7 |
| 20260504202508 | 68 | 105 | 3.5 | 7.8 | 0.00 | 0.00 | 0.00 | 29 | 1007.8 |
| 20260504202013 | 67 | 150 | 3.5 | 10.4 | 0.00 | 0.00 | 0.00 | 29 | 1007.8 |
| 20260504201528 | 67 | 207 | 2.6 | 10.4 | 0.00 | 0.00 | 0.00 | 29 | 1007.9 |
| 20260504201005 | 68 | 178 | 3.5 | 10.4 | 0.00 | 0.00 | 0.00 | 29 | 1008.0 |
| 20260504200509 | 69 | 150 | 3.5 | 10.4 | 0.00 | 0.00 | 0.00 | 26 | 1008.0 |
| 20260504200018 | 70 | 108 | 2.6 | 10.4 | 0.00 | 0.00 | 0.00 | 25 | 1008.1 |
| 20260504195507 | 71 | 121 | 1.7 | 10.4 | 0.00 | 0.00 | 0.00 | 23 | 1008.0 |
| 20260504195011 | 71 | 282 | 1.7 | 9.6 | 0.00 | 0.00 | 0.00 | 21 | 1007.8 |
| 20260504194539 | 71 | 209 | 1.7 | 11.3 | 0.00 | 0.00 | 0.00 | 21 | 1007.7 |
| 20260504194008 | 72 | 239 | 5.2 | 11.3 | 0.00 | 0.00 | 0.00 | 20 | 1007.7 |
| 20260504193510 | 72 | 238 | 2.6 | 8.7 | 0.00 | 0.00 | 0.00 | 20 | 1007.7 |
| 20260504193016 | 73 | 253 | 4.3 | 8.7 | 0.00 | 0.00 | 0.00 | 21 | 1007.7 |
| 20260504192507 | 72 | 163 | 1.7 | 7.0 | 0.00 | 0.00 | 0.00 | 22 | 1007.5 |